DateTimeUTC,F1_A11,F1_S11,BsB_S11,BsG_S11,BsR_S11,BbsB_S11,BbsG_S11,BbsR_S11,BaB_A11,BaG_A11,BaR_A11,Tu_S11,T_S11,Uu_S11,U_S11,P_S11,T1_A11
2021-12-13T12:00:00Z,00000200,21000000,,,,,,,0000.18,-000.42,0000.31,20.5,27.4,,00.0,0648.3,31.2
2021-12-13T12:01:00Z,00000200,21000000,,,,,,,-000.25,0000.45,-000.21,20.5,27.4,,00.0,0648.2,31.2
2021-12-13T12:02:00Z,00000200,21000000,,,,,,,-000.05,-000.39,-000.02,20.5,27.5,,00.0,0648.2,31.2
2021-12-13T12:03:00Z,00000200,61000000,,,,,,,0000.03,0000.28,-000.35,20.5,27.5,,00.0,0648.2,31.2
2021-12-13T12:04:00Z,00000200,41000000,0000.49,-000.06,0000.01,-000.19,0000.11,-000.06,0000.40,0000.20,0000.44,20.6,27.3,,00.0,0649.1,31.2
2021-12-13T12:05:00Z,00000200,01000000,0000.23,0000.32,-000.04,0000.70,0000.04,-000.11,-000.14,-000.17,-000.20,20.7,27.3,,00.0,0649.2,31.2
2021-12-13T12:06:00Z,00000200,01000000,0000.65,0000.51,0000.41,0000.65,0000.26,0000.08,0000.94,0000.90,0001.25,20.8,27.3,,00.0,0649.2,31.2
2021-12-13T12:07:00Z,00000200,01000000,0000.18,0000.08,0000.08,0000.25,0000.32,0000.07,0000.34,0000.10,0000.22,20.8,27.3,,00.0,0649.1,31.2
2021-12-13T12:08:00Z,00000200,01000000,0000.46,0000.09,-000.15,0000.42,-000.17,0000.16,0000.18,0000.47,0000.00,20.8,27.4,,00.0,0649.1,31.2
2021-12-13T12:09:00Z,00000200,01000000,0000.44,0000.09,-000.04,0000.11,-000.13,-000.16,0000.14,0000.16,0000.13,20.8,27.4,,00.0,0649.1,31.2
2021-12-13T12:10:00Z,00000200,01000000,-000.18,0000.03,0000.30,0000.55,-000.21,-000.01,0000.24,0000.53,0000.53,20.9,27.4,,00.0,0649.1,31.2
2021-12-13T12:11:00Z,00000200,01000000,-000.18,0000.05,-000.05,-000.07,0000.01,0000.02,0000.37,0000.08,-000.21,20.9,27.4,,00.0,0649.1,31.2
2021-12-13T12:12:00Z,00000200,01000000,-000.36,-000.07,0000.28,-000.12,0000.34,0000.40,0000.27,0000.13,-000.03,20.9,27.4,,00.0,0649.1,31.2
2021-12-13T12:13:00Z,00000200,01000000,-000.28,0000.52,0000.06,-000.10,0000.28,0000.04,0000.12,0000.18,0000.68,20.9,27.4,,00.0,0649.0,31.2
2021-12-13T12:14:00Z,00000200,01000000,-000.01,0000.20,0000.16,0000.32,0000.14,0000.23,-000.06,0000.31,-000.22,20.8,27.4,,00.0,0649.0,31.2
2021-12-13T12:15:00Z,00000200,01000000,-000.32,-000.01,-000.12,0000.09,0000.18,-000.16,0000.63,0000.61,0000.93,20.8,27.3,,00.0,0649.0,31.2
2021-12-13T12:16:00Z,00000200,01000000,0000.32,0000.19,0000.23,0000.43,0000.15,-000.29,0000.25,-000.35,-000.26,20.7,27.3,,00.0,0649.0,31.2
2021-12-13T12:17:00Z,00000200,01000000,0000.14,0000.29,0000.13,-000.44,0000.21,-000.07,0000.27,0000.08,-000.24,20.7,27.3,,00.0,0649.0,31.2
2021-12-13T12:18:00Z,00000200,01000000,-000.17,0000.28,0000.06,0000.26,0000.23,0000.14,-000.37,0000.29,0000.33,20.7,27.3,,00.0,0649.0,31.2
2021-12-13T12:19:00Z,00000200,01000000,-000.14,0000.34,0000.15,0000.13,0000.39,-000.04,0000.59,0000.27,0000.25,20.7,27.3,,00.0,0649.0,31.2
2021-12-13T12:20:00Z,00000200,01000000,0000.78,0000.40,0000.02,0000.57,0000.27,-000.09,-000.04,0000.14,0000.12,20.8,27.3,,00.0,0649.0,31.2
2021-12-13T12:21:00Z,00000200,01000000,0000.57,0000.06,0000.14,0000.45,0000.11,0000.09,0000.20,0000.28,0000.34,20.8,27.4,,00.0,0649.1,31.3
2021-12-13T12:22:00Z,00000200,01000000,0000.27,0000.45,-000.04,0000.06,0000.18,-000.04,0000.02,-000.64,0000.15,20.9,27.4,,00.0,0649.1,31.2
2021-12-13T12:23:00Z,00000200,01000000,0000.52,-000.09,0000.22,0000.74,0000.13,-000.10,-000.21,0000.24,-000.20,20.9,27.4,,00.0,0649.0,31.2
2021-12-13T12:24:00Z,00000200,01000000,0000.48,0000.04,0000.12,0000.81,-000.03,0000.12,0000.55,0000.32,0000.36,20.8,27.4,,00.0,0649.0,31.2
2021-12-13T12:25:00Z,00000200,01000000,0000.81,0000.13,0000.17,0000.57,-000.02,-000.28,-000.07,0000.50,0000.01,20.8,27.4,,00.0,0649.0,31.2
2021-12-13T12:26:00Z,00000200,01000000,0000.26,0000.30,-000.22,-000.15,0000.14,0000.25,0000.17,-000.19,-000.08,20.7,27.3,,00.0,0649.0,31.2
2021-12-13T12:27:00Z,00000200,01000000,-000.07,0000.08,-000.31,0000.58,0000.15,-000.23,0000.39,0000.39,0000.08,20.6,27.3,,00.0,0649.0,31.1
2021-12-13T12:28:00Z,00000200,01000000,0000.20,0000.16,-000.21,0000.05,0000.10,0000.11,-000.12,-000.27,0000.22,20.5,27.2,,00.0,0649.1,31.1
2021-12-13T12:29:00Z,00000200,01000000,0000.02,-000.16,-000.06,0000.59,0000.10,0000.37,0000.21,0000.44,0000.01,20.4,27.2,,00.0,0649.0,31.1
2021-12-13T12:30:00Z,00000200,01000000,0000.51,0000.26,0000.34,0000.11,0000.19,0000.32,0000.25,-000.15,0000.31,20.3,27.1,,00.0,0649.0,31.1
2021-12-13T12:31:00Z,00000200,01000000,0000.22,0000.16,-000.13,-000.42,0000.22,-000.04,-000.47,-000.01,-000.42,20.3,27.1,,00.0,0649.0,31.1
2021-12-13T12:32:00Z,00000200,01000000,0000.17,-000.09,-000.13,0000.50,0000.05,-000.02,0000.27,-000.02,0000.13,20.2,27.0,,00.0,0649.0,31.1
2021-12-13T12:33:00Z,00000200,01000000,-000.13,0000.70,0000.17,-000.14,0000.18,-000.37,0000.42,-000.10,0000.02,20.2,27.0,,00.0,0649.0,31.1
2021-12-13T12:34:00Z,00000200,01000000,0000.09,0000.18,-000.08,0000.57,0000.06,0000.36,-000.12,0000.47,0000.06,20.2,27.0,,00.0,0649.1,31.1
2021-12-13T12:35:00Z,00000200,01000000,0000.49,-000.04,-000.11,0000.61,-000.19,0000.06,-000.10,-000.01,0000.36,20.2,27.0,,00.0,0649.0,31.1
2021-12-13T12:36:00Z,00000200,01000000,0000.06,0000.06,0000.08,0001.00,0000.19,-000.22,0000.15,-000.16,-000.06,20.2,27.0,,00.0,0649.0,31.1
2021-12-13T12:37:00Z,00000200,01000000,-000.66,0000.42,-000.06,0000.14,-000.16,0000.17,0000.19,0000.40,-000.15,20.2,27.0,,00.0,0649.0,31.2
2021-12-13T12:38:00Z,00000200,01000000,0000.37,-000.04,0000.05,0000.21,0000.05,0000.09,0000.14,0000.09,0000.34,20.3,27.0,,00.0,0648.9,31.2
2021-12-13T12:39:00Z,00000200,01000000,0000.52,-000.00,0000.33,0000.29,0000.04,-000.11,0000.53,0000.12,0000.22,20.3,27.0,,00.0,0649.0,31.2
2021-12-13T12:40:00Z,00000200,01000000,-000.42,0000.01,0000.09,0000.20,0000.14,0000.17,-000.19,0000.23,0000.28,20.3,27.1,,00.0,0648.9,31.2
2021-12-13T12:41:00Z,00000200,01000000,0000.06,0000.28,0000.12,0000.30,0000.22,-000.22,0000.41,0000.27,-000.02,20.3,27.1,,00.0,0648.9,31.2
2021-12-13T12:42:00Z,00000200,01000000,0000.10,0000.12,0000.29,0000.57,0000.28,0000.44,-000.04,0000.20,0000.11,20.3,27.1,,00.0,0648.9,31.2
2021-12-13T12:43:00Z,00000200,01000000,0000.50,-000.16,-000.00,0000.30,0000.08,0000.05,0000.08,0000.56,-000.01,20.4,27.1,,00.0,0648.9,31.2
2021-12-13T12:44:00Z,00000200,01000000,0000.56,-000.14,0000.41,0000.66,0000.02,0000.16,0000.51,-000.28,-000.10,20.4,27.1,,00.0,0648.9,31.2
2021-12-13T12:45:00Z,00000200,01000000,0000.20,0000.19,0000.11,0000.61,-000.10,0000.10,0000.15,0000.13,0000.55,20.4,27.1,,00.0,0648.9,31.2
2021-12-13T12:46:00Z,00000200,01000000,0000.05,0000.22,0000.38,0000.44,0000.22,-000.07,0000.08,-000.05,0000.15,20.4,27.1,,00.0,0648.9,31.2
2021-12-13T12:47:00Z,00000200,01000000,0000.96,0000.00,-000.06,0000.57,0000.20,-000.01,-000.24,0000.28,-000.03,20.4,27.1,,00.0,0649.0,31.2
2021-12-13T12:48:00Z,00000200,01000000,-000.06,0000.45,0000.17,0000.29,0000.10,0000.05,0000.73,0000.26,0000.12,20.4,27.1,,00.0,0648.9,31.2
2021-12-13T12:49:00Z,00000200,01000000,0000.13,0000.05,0000.28,-000.07,0000.09,0000.10,-000.15,0000.07,0000.06,20.4,27.2,,00.0,0648.9,31.2
2021-12-13T12:50:00Z,00000200,01000000,0000.45,0000.29,0000.14,0000.42,-000.01,0000.11,0000.30,0000.06,-000.03,20.4,27.2,,00.0,0648.9,31.2
2021-12-13T12:51:00Z,00000200,01000000,0000.19,0000.06,0000.06,0000.25,0000.09,0000.14,0000.27,0000.16,0000.20,20.4,27.2,,00.0,0648.9,31.2
2021-12-13T12:52:00Z,00000200,01000000,-000.16,-000.01,-000.12,0000.02,0000.16,-000.19,-000.02,0000.23,-000.22,20.5,27.2,,00.0,0648.9,31.2
2021-12-13T12:53:00Z,00000200,01000000,-000.22,-000.08,0000.16,0000.03,0000.19,-000.27,0000.17,0000.47,0000.47,20.5,27.2,,00.0,0648.9,31.2
2021-12-13T12:54:00Z,00000200,01000000,0000.53,0000.12,0000.17,-000.14,0000.25,0000.26,0000.31,-000.41,0000.08,20.5,27.2,,00.0,0648.9,31.3
2021-12-13T12:55:00Z,00000200,01000000,0000.67,-000.28,0000.20,0000.78,-000.15,0000.09,0000.06,0000.37,0000.22,20.6,27.2,,00.0,0648.9,31.3
2021-12-13T12:56:00Z,00000200,01000000,0000.31,0000.10,-000.14,0000.05,0000.11,0000.16,0000.12,0000.28,0000.10,20.6,27.3,,00.0,0648.9,31.3
2021-12-13T12:57:00Z,00000200,41000000,,,,,,,0000.34,0000.06,0000.21,20.7,27.4,,00.0,0648.6,31.3
2021-12-13T12:58:00Z,00000200,61000000,,,,,,,-000.13,0000.04,-000.36,20.4,27.4,,00.0,0648.0,31.3
2021-12-13T12:59:00Z,00000200,21000000,,,,,,,-000.31,-000.19,0000.22,20.4,27.5,,00.0,0648.0,31.3
